Home > Weather > Bad Hersfeld > Past weeks

Flag for Germany Weather for the Past 2 Weeks in Bad Hersfeld, Hesse, Germany

Now
41 °F

Broken clouds.


Feels Like: 34 °F
Forecast: 31 / 40 °F
Wind: 12 mph from West

Location: Fritzlar Airport

Current Time: Feb 11, 2016 at 4:19:19 PM

Latest Report: Feb 11, 2016 at 3:20 PM


Visibility: N/A

Pressure: 29.65 "Hg

Humidity: 70%

Dew point: 32 °F

Location of Bad HersfeldLocation

Historic Weather in Bad Hersfeld — Graph

°F

Bad Hersfeld Temperature Yesterday

Maximum temperature yesterday: 39 °F (at 12:20 AM)
Minimum temperature yesterday: 36 °F (at 5:20 AM)
Average temperature yesterday: 38 °F

High & Low Weather Summary for the Past Weeks

 TemperatureHumidityPressure
High54 °F (Feb 1, 10:20 AM)100% (Feb 1, 5:20 AM)30.33 "Hg (Feb 1, 5:20 AM)
Low30 °F (Jan 28, 11:20 PM)50% (Jan 28, 2:20 PM)28.88 "Hg (Feb 9, 6:20 PM)
Average43 °F81%29.85 "Hg
* Reported Jan 27 2:20 PM — Feb 11 2:20 PM, Bad Hersfeld, Weather by CustomWeather, © 2016

Note: Actual official high and low records may vary slightly from our data, if they occured in-between our weather recording intervals... More about our weather records

Advertising

Bad Hersfeld Weather History for the Previous 24 Hours

 ConditionsComfort  
Time TempWeatherWind HumidityBarometerVisibility
2:20 PM
Thu, Feb 11
41 °FBroken clouds.14 mph70%29.65 "HgN/A
1:20 PM41 °FScattered showers. Broken clouds.15 mph70%29.65 "HgN/A
12:20 PM41 °FScattered showers. Partly sunny.12 mph70%29.65 "HgN/A
11:20 AM41 °FScattered clouds.12 mph81%29.65 "HgN/A
10:20 AM39 °FScattered showers. Scattered clouds.15 mph81%29.65 "HgN/A
9:20 AM37 °FPartly sunny.8 mph87%29.62 "HgN/A
8:20 AM36 °FScattered clouds.6 mph87%29.62 "HgN/A
7:20 AM36 °FPassing clouds.9 mph81%29.62 "HgN/A
6:20 AM34 °FPassing clouds.8 mph87%29.59 "HgN/A
5:20 AM37 °FPassing clouds.7 mph87%29.59 "HgN/A
4:20 AM37 °FPassing clouds.7 mph87%29.59 "HgN/A
3:20 AM37 °FPassing clouds.6 mph87%29.56 "HgN/A
2:20 AM37 °FPassing clouds.9 mph87%29.56 "HgN/A
1:20 AM37 °FPassing clouds.5 mph87%29.53 "HgN/A
12:20 AM39 °FPartly cloudy.8 mph81%29.53 "HgN/A
11:20 PM
Wed, Feb 10
39 °FLight rain. Passing clouds.7 mph87%29.50 "HgN/A
10:20 PM39 °FPassing clouds.6 mph87%29.47 "HgN/A
9:20 PM39 °FPartly cloudy.9 mph87%29.45 "HgN/A
8:20 PM39 °FPassing clouds.10 mph81%29.42 "HgN/A
7:20 PM37 °FPassing clouds.9 mph87%29.42 "HgN/A
6:20 PM37 °FLight rain. Partly cloudy.9 mph87%29.39 "HgN/A
5:20 PM39 °FPartly sunny.8 mph87%29.39 "HgN/A
5:00 PM39 °FBroken clouds.10 mph81%29.39 "HgN/A
4:20 PM39 °FPartly sunny.10 mph87%29.36 "HgN/A
Weather by CustomWeather, © 2016

See weather overviewHow to use our weather pages